KN4URY Weather Reports


time (UTC)temp
C
wind
direction
speed
KPH
gust
KPH
rain 1hr
cm
rain 24hr
cm
rain mn
cm
humidity
%
barometer
mb
20260502130333 12 341 0.0 3.2 0.00 0.00 0.00 77 1013.1
20260502052848 10 341 1.6 8.0 0.00 0.00 0.00 86 1011.9
20260502052325 10 341 1.6 4.8 0.00 0.00 0.00 86 1011.9
20260502051333 10 341 0.0 3.2 0.00 0.00 0.00 86 1012.0
20260502050833 10 341 1.6 4.8 0.00 0.00 0.00 85 1012.0
20260502050333 10 341 0.0 4.8 0.00 0.00 0.00 85 1012.0
20260502045829 10 341 0.0 6.4 0.00 0.00 0.00 85 1012.0
20260502045334 10 341 1.6 6.4 0.00 0.00 0.00 85 1012.1
20260502044833 10 341 0.0 3.2 0.00 0.00 0.00 84 1012.1
20260502044333 10 341 0.0 3.2 0.00 0.00 0.00 84 1012.2
20260502043833 10 341 0.0 3.2 0.00 0.00 0.00 84 1012.2
20260502043332 11 341 0.0 3.2 0.00 0.00 0.00 83 1012.2
20260502042829 11 341 0.0 3.2 0.00 0.00 0.00 83 1012.2
20260502042325 11 341 0.0 8.0 0.00 0.00 0.00 83 1012.2
20260502041825 11 341 0.0 6.4 0.00 0.00 0.00 83 1012.1
20260502041324 11 341 1.6 6.4 0.00 0.00 0.00 83 1012.1
20260502040824 11 341 1.6 4.8 0.00 0.00 0.00 83 1012.2
20260502040323 11 341 0.0 4.8 0.00 0.00 0.00 83 1012.2
20260502035824 11 341 1.6 4.8 0.00 0.00 0.00 83 1012.3
20260502035323 11 341 0.0 3.2 0.00 0.00 0.00 82 1012.3
20260502034825 11 341 0.0 3.2 0.00 0.00 0.00 82 1012.1
20260502034322 11 341 0.0 4.8 0.00 0.00 0.00 82 1012.2
20260502033819 11 341 0.0 4.8 0.00 0.00 0.00 82 1012.0
20260502033320 11 341 0.0 3.2 0.00 0.00 0.00 81 1012.1
20260502032818 11 341 0.0 3.2 0.00 0.00 0.00 81 1012.0
20260502032318 11 341 0.0 3.2 0.00 0.00 0.00 81 1012.2
20260502031814 11 341 0.0 6.4 0.00 0.00 0.00 81 1012.3
20260502031311 11 341 1.6 6.4 0.00 0.00 0.00 81 1012.2
20260502030836 11 341 0.0 4.8 0.00 0.00 0.00 80 1012.2
20260502030314 11 341 0.0 6.4 0.00 0.00 0.00 80 1012.0
20260502025813 11 341 0.0 6.4 0.00 0.00 0.00 80 1012.1
20260502025338 11 341 0.0 4.8 0.00 0.00 0.00 79 1012.1
20260502024816 11 341 1.6 4.8 0.00 0.00 0.00 79 1012.1
20260502024314 12 341 0.0 4.8 0.00 0.00 0.00 79 1012.2
20260502023840 12 341 0.0 6.4 0.00 0.00 0.00 78 1012.1
20260502023318 12 341 0.0 6.4 0.00 0.00 0.00 78 1012.0
20260502022841 12 341 1.6 6.4 0.00 0.00 0.00 78 1012.0
20260502022319 12 341 0.0 4.8 0.00 0.00 0.00 77 1012.0
20260502021819 12 341 1.6 3.2 0.00 0.00 0.00 77 1012.0
20260502021318 12 341 0.0 8.0 0.00 0.00 0.00 76 1012.0
20260502020842 12 341 0.0 4.8 0.00 0.00 0.00 76 1011.9
20260502020319 12 341 1.6 4.8 0.00 0.00 0.00 76 1012.0
20260502015818 12 341 0.0 4.8 0.00 0.00 0.00 75 1012.0
20260502015342 12 341 0.0 4.8 0.00 0.00 0.00 75 1012.0
20260502014821 13 341 0.0 4.8 0.00 0.00 0.00 74 1011.9
20260502014320 13 341 0.0 6.4 0.00 0.00 0.00 74 1011.9
20260502013814 13 341 1.6 6.4 0.00 0.00 0.00 74 1012.0
20260502013314 13 341 1.6 4.8 0.00 0.00 0.00 73 1012.0
20260502012814 13 341 0.0 4.8 0.00 0.00 0.00 73 1011.9
20260502012312 13 341 1.6 4.8 0.00 0.00 0.00 73 1011.8
20260502011812 13 341 0.0 4.8 0.00 0.00 0.00 72 1011.6
20260502011338 13 341 0.0 4.8 0.00 0.00 0.00 72 1011.4
20260502010815 13 341 0.0 3.2 0.00 0.00 0.00 71 1011.6
20260502010314 13 341 1.6 6.4 0.00 0.00 0.00 71 1011.5
20260502005839 13 341 1.6 6.4 0.00 0.00 0.00 71 1011.4
20260502005316 13 341 1.6 6.4 0.00 0.00 0.00 71 1011.3
20260502004816 13 341 0.0 6.4 0.00 0.00 0.00 71 1011.1
20260502004312 13 341 0.0 3.2 0.00 0.00 0.00 71 1011.1
20260502003859 13 341 0.0 3.2 0.00 0.00 0.00 72 1011.1
20260502003336 13 341 0.0 1.6 0.00 0.00 0.00 71 1010.9
20260502002836 13 341 0.0 0.0 0.00 0.00 0.00 70 1010.8
20260502002335 13 341 0.0 0.0 0.00 0.00 0.00 68 1010.6
20260502001859 14 341 0.0 0.0 0.00 0.00 0.00 68 1010.5
20260502001336 15 341 0.0 0.0 0.00 0.00 0.00 67 1010.4
20260502000836 15 341 0.0 0.0 0.00 0.00 0.00 65 1010.3
20260502000333 15 341 0.0 0.0 0.00 0.00 0.00 64 1010.5
20260501235828 16 341 0.0 0.0 0.00 0.00 0.00 62 1010.4
20260501235327 16 341 0.0 0.0 0.00 0.00 0.00 61 1010.5
20260501234827 17 341 0.0 0.0 0.00 0.00 0.00 59 1010.7
20260501234327 17 341 0.0 1.6 0.00 0.00 0.00 59 1010.5
20260501233826 17 341 0.0 1.6 0.00 0.00 0.00 58 1010.5
20260501233325 17 341 0.0 1.6 0.00 0.00 0.00 57 1010.6
20260501232823 17 341 0.0 1.6 0.00 0.00 0.00 58 1010.4
20260501232347 17 341 0.0 1.6 0.00 0.00 0.00 58 1010.4
20260501231826 17 341 0.0 1.6 0.00 0.00 0.00 56 1010.4
20260501231353 17 341 0.0 1.6 0.00 0.00 0.00 58 1010.4
20260501230851 17 341 0.0 1.6 0.00 0.00 0.00 55 1010.4
20260501230327 17 341 0.0 1.6 0.00 0.00 0.00 54 1010.4
20260501225831 17 341 0.0 4.8 0.00 0.00 0.00 54 1010.4
20260501225330 18 341 0.0 4.8 0.00 0.00 0.00 53 1010.4
20260501224828 18 341 0.0 6.4 0.00 0.00 0.00 51 1010.4
20260501224327 18 341 1.6 6.4 0.00 0.00 0.00 51 1010.6
20260501223824 18 341 0.0 4.8 0.00 0.00 0.00 51 1010.8
20260501223322 18 341 1.6 4.8 0.00 0.00 0.00 50 1010.8
20260501222848 18 341 1.6 4.8 0.00 0.00 0.00 48 1010.9
20260501222327 18 341 1.6 8.0 0.00 0.00 0.00 47 1011.1
20260501221827 18 341 1.6 11.3 0.00 0.00 0.00 47 1010.9
20260501221348 19 341 3.2 11.3 0.00 0.00 0.00 45 1010.8
20260501220845 20 341 1.6 11.3 0.00 0.00 0.00 44 1010.9
20260501220346 20 341 3.2 11.3 0.00 0.00 0.00 44 1010.9
20260501215845 20 341 3.2 14.5 0.00 0.00 0.00 46 1010.9
20260501215343 20 341 6.4 14.5 0.00 0.00 0.00 45 1011.0
20260501214843 20 341 4.8 14.5 0.00 0.00 0.00 43 1011.1
20260501214344 21 341 3.2 12.9 0.00 0.00 0.00 43 1011.2
20260501213845 21 341 3.2 9.7 0.00 0.00 0.00 42 1011.1
20260501213345 21 341 0.0 12.9 0.00 0.00 0.00 43 1011.1
20260501212844 21 341 3.2 12.9 0.00 0.00 0.00 42 1011.0
20260501212343 21 341 4.8 11.3 0.00 0.00 0.00 41 1011.0
20260501211842 21 341 1.6 6.4 0.00 0.00 0.00 40 1011.0
20260501211338 21 341 0.0 8.0 0.00 0.00 0.00 40 1011.1
20260501210837 21 341 3.2 14.5 0.00 0.00 0.00 39 1011.1
20260501210336 20 341 4.8 14.5 0.00 0.00 0.00 40 1011.0
20260501205833 20 341 4.8 11.3 0.00 0.00 0.00 39 1011.1
20260501205332 20 341 3.2 11.3 0.00 0.00 0.00 38 1011.1
20260501204830 20 341 1.6 16.1 0.00 0.00 0.00 39 1011.0
20260501204330 20 341 3.2 16.1 0.00 0.00 0.00 43 1011.0
20260501203828 20 341 8.0 16.1 0.00 0.00 0.00 40 1011.0
20260501203326 20 341 6.4 19.3 0.00 0.00 0.00 41 1011.1
20260501202824 20 341 6.4 19.3 0.00 0.00 0.00 41 1011.1
20260501202322 20 341 6.4 14.5 0.00 0.00 0.00 43 1011.2
20260501201821 20 341 3.2 12.9 0.00 0.00 0.00 42 1011.3
20260501201322 20 341 4.8 12.9 0.00 0.00 0.00 41 1011.5
20260501200844 21 341 6.4 12.9 0.00 0.00 0.00 40 1011.7
20260501200343 21 341 4.8 9.7 0.00 0.00 0.00 42 1011.7
20260501195842 21 341 0.0 9.7 0.00 0.00 0.00 42 1011.8
20260501195341 21 341 1.6 12.9 0.00 0.00 0.00 42 1012.0
20260501194840 20 341 3.2 24.1 0.00 0.00 0.00 42 1012.0
20260501194340 20 341 3.2 24.1 0.00 0.00 0.00 41 1012.1
20260501193840 21 341 1.6 11.3 0.00 0.00 0.00 39 1012.3
20260501193404 21 341 1.6 11.3 0.00 0.00 0.00 39 1012.3
20260501192843 21 341 4.8 9.7 0.00 0.00 0.00 39 1012.2
20260501192345 21 341 1.6 14.5 0.00 0.00 0.00 41 1012.2
20260501191843 21 341 3.2 14.5 0.00 0.00 0.00 40 1012.4
20260501191344 21 341 3.2 8.0 0.00 0.00 0.00 40 1012.4
20260501190824 21 341 0.0 9.7 0.00 0.00 0.00 43 1012.5
20260501190322 20 341 3.2 19.3 0.00 0.00 0.00 44 1012.5
20260501185822 20 341 1.6 17.7 0.00 0.00 0.00 38 1012.7
20260501185347 20 341 3.2 17.7 0.00 0.00 0.00 41 1012.9
20260501184846 20 341 4.8 11.3 0.00 0.00 0.00 40 1012.9
20260501184346 20 341 3.2 8.0 0.00 0.00 0.00 42 1012.9
20260501183853 19 341 3.2 8.0 0.00 0.00 0.00 42 1013.1
20260501183335 19 341 1.6 11.3 0.00 0.00 0.00 41 1013.2
20260501182830 20 341 4.8 11.3 0.00 0.00 0.00 42 1013.3
20260501182328 20 341 1.6 8.0 0.00 0.00 0.00 40 1013.2
20260501181827 19 341 1.6 11.3 0.00 0.00 0.00 39 1013.5
20260501181326 19 341 1.6 16.1 0.00 0.00 0.00 42 1013.5
20260501180825 20 341 4.8 16.1 0.00 0.00 0.00 39 1013.5
20260501180324 20 341 1.6 12.9 0.00 0.00 0.00 39 1013.5
20260501175851 19 341 4.8 14.5 0.00 0.00 0.00 40 1013.6
20260501175330 20 341 4.8 12.9 0.00 0.00 0.00 40 1013.8
20260501174828 20 341 0.0 8.0 0.00 0.00 0.00 45 1013.8
20260501174328 19 341 0.0 14.5 0.00 0.00 0.00 44 1013.7
20260501173854 18 341 1.6 16.1 0.00 0.00 0.00 39 1013.9
20260501173328 18 341 1.6 16.1 0.00 0.00 0.00 40 1014.1
20260501172828 18 341 0.0 12.9 0.00 0.00 0.00 44 1014.1
20260501172354 18 341 3.2 17.7 0.00 0.00 0.00 44 1014.1
20260501171831 18 341 4.8 17.7 0.00 0.00 0.00 43 1014.2
20260501171330 18 341 1.6 8.0 0.00 0.00 0.00 44 1014.2
20260501170828 18 341 1.6 8.0 0.00 0.00 0.00 44 1014.3
20260501170327 18 341 1.6 4.8 0.00 0.00 0.00 46 1014.4
20260501165826 17 341 1.6 12.9 0.00 0.00 0.00 49 1014.5
20260501165352 17 341 4.8 12.9 0.00 0.00 0.00 43 1014.5
20260501164830 18 341 3.2 6.4 0.00 0.00 0.00 42 1014.5
20260501164329 17 341 1.6 6.4 0.00 0.00 0.00 48 1014.5
20260501163843 17 341 1.6 11.3 0.00 0.00 0.00 46 1014.5
20260501163342 17 341 4.8 11.3 0.00 0.00 0.00 48 1014.8
20260501162841 17 341 0.0 4.8 0.00 0.00 0.00 45 1014.6
20260501162341 17 341 1.6 4.8 0.00 0.00 0.00 47 1014.7
20260501161840 18 341 1.6 4.8 0.00 0.00 0.00 44 1014.8
20260501161341 18 341 0.0 3.2 0.00 0.00 0.00 45 1014.7
20260501160841 17 341 0.0 3.2 0.00 0.00 0.00 48 1014.8
20260501160337 17 341 1.6 3.2 0.00 0.00 0.00 48 1014.7
20260501155838 16 341 1.6 11.3 0.00 0.00 0.00 44 1014.8
20260501155337 16 341 3.2 11.3 0.00 0.00 0.00 45 1015.0
20260501154836 16 341 1.6 6.4 0.00 0.00 0.00 43 1015.1
20260501154356 17 341 0.0 6.4 0.00 0.00 0.00 43 1015.2
20260501153834 17 341 1.6 4.8 0.00 0.00 0.00 43 1015.1
20260501153332 17 341 1.6 4.8 0.00 0.00 0.00 47 1015.2